• en France
  • Liste des pays
  • À 7 jours
  • Température de l'eau
  • Carte satellitaire
  • Carte météo
  • Widgets météo
  • user-avatar
    Se connecter

    Météo par heure à Kecskemét

    Ce jour, 19 Janvier, Vendredi

    Heure Température Précipitation Vent Pression Humidité
    00:00 +3°C° 0,3 mm 6 m/s 743 mmHg 64%
    01:00 +3°C° 0,3 mm 5 m/s 743 mmHg 68%
    02:00 +3°C° 0,3 mm 5 m/s 743 mmHg 71%
    03:00 +3°C° 0,3 mm 5 m/s 743 mmHg 74%
    04:00 +4°C° 0,3 mm 4 m/s 744 mmHg 77%
    05:00 +4°C° 0,1 mm 4 m/s 744 mmHg 78%
    06:00 +3°C° 0,1 mm 4 m/s 744 mmHg 79%
    07:00 +3°C° 0,1 mm 4 m/s 744 mmHg 80%
    08:00 +4°C° 0,1 mm 4 m/s 745 mmHg 79%
    09:00 +4°C° 0,1 mm 4 m/s 745 mmHg 78%
    10:00 +4°C° 0,1 mm 3 m/s 745 mmHg 78%
    11:00 +5°C° 0,1 mm 3 m/s 745 mmHg 76%
    12:00 +5°C° 0,1 mm 3 m/s 746 mmHg 74%
    13:00 +5°C° 0,1 mm 3 m/s 746 mmHg 72%
    14:00 +5°C° 0 mm 3 m/s 746 mmHg 75%
    15:00 +6°C° 0 mm 2 m/s 746 mmHg 77%
    16:00 +6°C° 0 mm 2 m/s 746 mmHg 80%
    17:00 +5°C° 0,1 mm 2 m/s 747 mmHg 81%
    18:00 +4°C° 0,1 mm 3 m/s 747 mmHg 82%
    19:00 +4°C° 0,1 mm 3 m/s 748 mmHg 84%
    20:00 +3°C° 0 mm 3 m/s 748 mmHg 82%
    21:00 +3°C° 0 mm 3 m/s 748 mmHg 81%
    22:00 +3°C° 0 mm 4 m/s 749 mmHg 80%
    23:00 +3°C° 0 mm 4 m/s 749 mmHg 78%

    Demain, 20 Janvier, Samedi

    Heure Température Précipitation Vent Pression Humidité
    00:00 +3°C° 0 mm 4 m/s 749 mmHg 76%
    01:00 +1°C° 0 mm 4 m/s 749 mmHg 74%
    02:00 +2°C° 0 mm 3 m/s 749 mmHg 74%
    03:00 +1°C° 0 mm 3 m/s 749 mmHg 75%
    04:00 +1°C° 0 mm 3 m/s 749 mmHg 75%
    05:00 0°C° 0 mm 3 m/s 749 mmHg 77%
    06:00 0°C° 0 mm 3 m/s 749 mmHg 79%
    07:00 -1°C° 0 mm 3 m/s 749 mmHg 81%
    08:00 0°C° 0 mm 3 m/s 749 mmHg 76%
    09:00 +1°C° 0 mm 3 m/s 749 mmHg 72%
    10:00 +2°C° 0 mm 3 m/s 749 mmHg 68%
    11:00 +3°C° 0 mm 3 m/s 749 mmHg 65%
    12:00 +4°C° 0 mm 4 m/s 749 mmHg 62%
    13:00 +5°C° 0 mm 4 m/s 748 mmHg 59%
    14:00 +4°C° 0 mm 3 m/s 748 mmHg 62%
    15:00 +4°C° 0 mm 3 m/s 747 mmHg 65%
    16:00 +5°C° 0 mm 2 m/s 747 mmHg 68%
    17:00 +4°C° 0 mm 2 m/s 747 mmHg 71%
    18:00 +2°C° 0 mm 3 m/s 747 mmHg 75%
    19:00 +1°C° 0 mm 3 m/s 747 mmHg 79%
    20:00 +1°C° 0 mm 3 m/s 746 mmHg 80%
    21:00 +1°C° 0 mm 3 m/s 746 mmHg 81%
    22:00 0°C° 0 mm 3 m/s 746 mmHg 82%
    23:00 0°C° 0 mm 3 m/s 745 mmHg 82%

    Après-demain, 21 Janvier, Dimanche

    Heure Température Précipitation Vent Pression Humidité
    00:00 0°C° 0 mm 3 m/s 745 mmHg 82%
    01:00 0°C° 0 mm 3 m/s 745 mmHg 81%
    02:00 0°C° 0 mm 3 m/s 744 mmHg 81%
    03:00 0°C° 0 mm 3 m/s 744 mmHg 81%
    04:00 0°C° 0 mm 3 m/s 743 mmHg 80%
    05:00 0°C° 0,2 mm 3 m/s 743 mmHg 81%
    06:00 0°C° 0,2 mm 3 m/s 743 mmHg 82%
    07:00 +1°C° 0,2 mm 2 m/s 743 mmHg 82%
    08:00 +1°C° 0,4 mm 2 m/s 744 mmHg 82%
    09:00 +1°C° 0,4 mm 2 m/s 744 mmHg 81%
    10:00 +1°C° 0,4 mm 2 m/s 745 mmHg 81%
    11:00 +1°C° 0,2 mm 3 m/s 745 mmHg 80%
    12:00 +1°C° 0,2 mm 3 m/s 745 mmHg 80%
    13:00 +1°C° 0,2 mm 3 m/s 746 mmHg 79%
    14:00 0°C° 0,1 mm 4 m/s 746 mmHg 80%
    15:00 0°C° 0,1 mm 4 m/s 747 mmHg 82%
    16:00 0°C° 0,1 mm 4 m/s 748 mmHg 83%
    17:00 0°C° 0 mm 4 m/s 748 mmHg 85%
    18:00 -1°C° 0 mm 4 m/s 749 mmHg 86%
    19:00 -1°C° 0 mm 4 m/s 750 mmHg 88%
    20:00 -1°C° 0 mm 4 m/s 750 mmHg 87%
    21:00 -2°C° 0 mm 4 m/s 750 mmHg 87%
    22:00 -1°C° 0 mm 3 m/s 751 mmHg 86%
    23:00 -2°C° 0 mm 3 m/s 751 mmHg 86%

    22 Janvier, Lundi

    Heure Température Précipitation Vent Pression Humidité
    00:00 -2°C° 0 mm 3 m/s 751 mmHg 87%
    01:00 -4°C° 0 mm 3 m/s 752 mmHg 87%
    02:00 -3°C° 0 mm 2 m/s 752 mmHg 86%
    03:00 -3°C° 0 mm 2 m/s 752 mmHg 86%
    04:00 -3°C° 0 mm 2 m/s 752 mmHg 85%
    05:00 -1°C° 0 mm 1 m/s 752 mmHg 85%
    06:00 -1°C° 0 mm 1 m/s 753 mmHg 84%
    07:00 -1°C° 0 mm 1 m/s 753 mmHg 83%
    08:00 0°C° 0 mm 1 m/s 753 mmHg 78%
    09:00 +1°C° 0 mm 1 m/s 753 mmHg 73%
    10:00 +1°C° 0 mm 1 m/s 754 mmHg 68%
    11:00 +2°C° 0 mm 1 m/s 754 mmHg 65%
    12:00 +3°C° 0 mm 1 m/s 754 mmHg 61%
    13:00 +2°C° 0 mm 2 m/s 753 mmHg 58%
    14:00 +2°C° 0 mm 2 m/s 753 mmHg 62%
    15:00 +1°C° 0 mm 2 m/s 753 mmHg 66%
    16:00 +1°C° 0 mm 2 m/s 753 mmHg 69%
    17:00 +1°C° 0 mm 2 m/s 753 mmHg 71%
    18:00 +1°C° 0 mm 2 m/s 753 mmHg 73%
    19:00 +1°C° 0 mm 2 m/s 753 mmHg 75%
    20:00 +1°C° 0 mm 2 m/s 753 mmHg 76%
    21:00 -1°C° 0 mm 3 m/s 753 mmHg 77%
    22:00 -1°C° 0 mm 3 m/s 753 mmHg 77%
    23:00 -1°C° 0,1 mm 3 m/s 753 mmHg 78%

    23 Janvier, Mardi

    Heure Température Précipitation Vent Pression Humidité
    00:00 -1°C° 0,1 mm 3 m/s 752 mmHg 79%
    01:00 -1°C° 0,1 mm 3 m/s 752 mmHg 79%
    02:00 -1°C° 0,1 mm 3 m/s 752 mmHg 80%
    03:00 -2°C° 0,1 mm 4 m/s 752 mmHg 80%
    04:00 -2°C° 0,1 mm 4 m/s 752 mmHg 80%
    05:00 -2°C° 0,5 mm 4 m/s 752 mmHg 84%
    06:00 -2°C° 0,5 mm 4 m/s 752 mmHg 87%
    07:00 -1°C° 0,5 mm 3 m/s 752 mmHg 90%
    08:00 -1°C° 0,5 mm 3 m/s 752 mmHg 91%
    09:00 -1°C° 0,5 mm 3 m/s 753 mmHg 92%
    10:00 -1°C° 0,5 mm 3 m/s 754 mmHg 93%
    11:00 0°C° 0,1 mm 3 m/s 754 mmHg 92%
    12:00 +1°C° 0,1 mm 2 m/s 755 mmHg 92%
    13:00 +1°C° 0,1 mm 2 m/s 755 mmHg 91%
    14:00 +1°C° 0 mm 2 m/s 756 mmHg 91%
    15:00 +1°C° 0 mm 2 m/s 756 mmHg 91%
    16:00 +1°C° 0 mm 2 m/s 757 mmHg 91%
    17:00 +1°C° 0 mm 1 m/s 757 mmHg 91%
    18:00 +1°C° 0 mm 1 m/s 757 mmHg 92%
    19:00 0°C° 0 mm 1 m/s 758 mmHg 93%
    20:00 0°C° 0 mm 1 m/s 758 mmHg 93%
    21:00 -1°C° 0 mm 2 m/s 758 mmHg 93%
    22:00 -1°C° 0 mm 2 m/s 758 mmHg 94%
    23:00 +1°C° 0,3 mm 2 m/s 758 mmHg 94%

    24 Janvier, Mercredi

    Heure Température Précipitation Vent Pression Humidité
    00:00 +1°C° 0,3 mm 2 m/s 758 mmHg 95%
    01:00 +1°C° 0,3 mm 3 m/s 758 mmHg 96%
    02:00 +1°C° 0,2 mm 3 m/s 758 mmHg 96%
    03:00 +2°C° 0,2 mm 3 m/s 758 mmHg 95%
    04:00 +1°C° 0,2 mm 4 m/s 758 mmHg 95%
    05:00 +1°C° 0 mm 4 m/s 758 mmHg 95%
    06:00 +1°C° 0 mm 4 m/s 758 mmHg 94%
    07:00 +1°C° 0 mm 3 m/s 759 mmHg 94%
    08:00 +2°C° 0 mm 3 m/s 759 mmHg 93%
    09:00 +2°C° 0 mm 3 m/s 760 mmHg 92%
    10:00 +3°C° 0 mm 3 m/s 761 mmHg 91%
    11:00 +3°C° 0 mm 3 m/s 761 mmHg 89%
    12:00 +3°C° 0 mm 3 m/s 761 mmHg 87%
    13:00 +3°C° 0 mm 3 m/s 761 mmHg 85%
    14:00 +4°C° 0 mm 2 m/s 761 mmHg 86%
    15:00 +3°C° 0 mm 2 m/s 761 mmHg 88%
    16:00 +3°C° 0 mm 2 m/s 761 mmHg 90%
    17:00 +3°C° 0 mm 1 m/s 762 mmHg 91%
    18:00 +2°C° 0 mm 1 m/s 762 mmHg 92%
    19:00 +2°C° 0 mm 1 m/s 762 mmHg 94%
    20:00 +2°C° 0 mm 1 m/s 762 mmHg 94%
    21:00 +1°C° 0 mm 1 m/s 763 mmHg 94%
    22:00 +1°C° 0 mm 1 m/s 763 mmHg 95%
    23:00 +1°C° 0 mm 1 m/s 763 mmHg 95%
    Voir plus